COSMOS 249 DEB, 3912

Orbit data source: Space-Track

COSMOS 249 DEB, 3912 is space debris in LEO originally from a launch on Sun, 20 Oct 1968 UTC launched from the Tyuratam Missile And Space Complex (TTMTR). Debris objects in space refer to the collection of defunct objects orbiting the Earth. Examples of debris include non-operational satellites, rocket bodies, and fragments generated from explosions, collisions, or faulty payload assembly.

Loading next visibility...
Identifier
3912, 1968-091BQ
Orbit
LEO
Country
Flag of CISCIS
Related business
Manufacturer
Unknown
Mission
Spacecraft
Bus & Motor
Unknown
Mass
Unknown
Launch date (UTC)
1968-10-20 (57 years ago)
Launch vehicle
Unknown
Launch site
Tyuratam Missile And Space Complex (TTMTR)
Object type
Payload
Rocket body
Debris
Shape & HBR
Unknown shape, 0.1 m
Radar Cross Section
Small (<0.1 m²)

Expand to show TLE details & history
Last TLE update: 14 hours ago

TLE from 14 hours ago
0 COSMOS 249 DEB
1 03912U 68091BQ  25286.59410351  .00000961  00000-0  13971-2 0  9999
2 03912  62.2487 141.8019 0782544  20.7602 342.3383 12.73825571613903
Epoch: 2025-10-13T14:15Z
TLE epoch observation values (Epoch: 2025-10-13T14:15:30.543Z)
Latitude
-0.00002°
Longitude
-94.47002°
Altitude
795.386 km
Speed
7.727 km/s
True Right ascension
09h 27m 12s
True Declination
0° 00' 00"
Sunlit
Object was in daylight at epoch
Visualization orbit readout
Latitude
Unknown
Longitude
Unknown
Altitude
Unknown
Speed
Unknown
Apparent Right ascension
Unknown
Apparent Declination
Unknown
Sunlit
N/A
Visualization observer readout
Local Sidereal Time
22:30:30
Azimuth
Unknown
Elevation
Unknown
Doppler factor
Unknown
Orbital elements
Apogee altitude
1,971.363 km
Perigee altitude
759.431 km
Semi-major axis
7,743.534 km
Eccentricity
0.07825
Inclination
62.2487°
RAAN
141.8019°
Arg. of periapsis
20.7602°
True anomaly
339.34069°
Mean anomaly
342.3383°
Eccentric anomaly
340.86887°
Mean motion
3.18518 °/min
Orbital period
113.02 mins
BSTAR
0.0013971
Loading maneuver chart data...
Computing Atmospheric mass density...

Documentation

Showing up to 5 results
|